Location: ???????
(55.4362°N, 38.1183°E)
Time: 00:22:53
(UTC+00:00)

Cosmos 2322 Rocket - Visible Passes

Search period start: 18 October 2021 00:00
Search period end: 28 October 2021 00:00
Orbit: 834 x 849 km, 71.0° (Epoch: 16 October)

Date Brightness Start Highest point End Pass type
(mag) Time Alt. Az. Time Alt. Az. Time Alt. Az.
18 Oct 2.9 01:14:43 10° NNW 01:20:16 53° NE 01:25:48 10° SE visible
18 Oct 2.6 02:59:00 10° NW 03:04:14 40° WSW 03:09:28 10° S visible
18 Oct 3.9 16:14:54 10° SSE 16:16:08 15° SE 16:16:08 15° SE visible
18 Oct 4.2 17:57:04 10° SW 17:58:06 16° SW 17:58:06 16° SW visible
18 Oct5.219:53:40NNE19:53:40NNE19:40:03WSWvisible
18 Oct 4.8 21:35:31 14° NNE 21:35:31 14° NNE 21:37:11 10° NE visible
18 Oct 4.4 23:17:22 16° N 23:19:50 21° NNE 23:24:06 10° ENE visible
19 Oct 2.9 00:59:40 10° NNW 01:05:11 51° NE 01:10:43 10° ESE visible
19 Oct 2.6 02:43:55 10° NW 02:49:12 42° WSW 02:54:29 10° S visible
19 Oct 3.3 15:59:58 10° SSE 16:03:24 22° ESE 16:03:24 22° ESE visible
19 Oct 3.1 17:42:01 10° SW 17:45:19 37° SW 17:45:19 37° SW visible
19 Oct5.019:39:42NE19:39:42NE19:27:16Wvisible
19 Oct 5.0 21:21:35 11° NNE 21:21:35 11° NNE 21:22:05 10° NE visible
19 Oct 4.4 23:03:27 19° N 23:04:43 21° NNE 23:08:57 10° ENE visible
20 Oct 3.0 00:45:20 14° NNW 00:50:07 50° NE 00:55:38 10° ESE visible
20 Oct 2.5 02:28:51 10° NW 02:34:10 43° WSW 02:39:29 10° S visible
20 Oct 3.3 15:45:03 10° SSE 15:49:13 22° ESE 15:50:24 20° E visible
20 Oct 2.1 17:26:57 10° SSW 17:32:19 81° SW 17:32:19 81° SW visible
20 Oct 4.5 19:12:33 10° W 19:14:14 18° W 19:14:14 18° W visible
20 Oct 4.4 22:49:53 21° NNE 22:49:53 21° NNE 22:53:49 10° ENE visible
21 Oct 3.0 00:31:47 23° NNW 00:35:03 48° NE 00:40:32 10° ESE visible
21 Oct 2.4 02:13:47 10° NW 02:19:08 45° WSW 02:24:30 10° S visible
21 Oct 3.3 15:30:08 10° SSE 15:34:12 21° ESE 15:37:04 14° ENE visible
21 Oct 2.0 17:11:54 10° SSW 17:17:32 90° ESE 17:18:58 53° NNE visible
21 Oct 4.0 18:57:25 10° W 19:00:51 26° WNW 19:00:51 26° WNW visible
21 Oct5.420:54:44NE20:54:44NE20:42:44WNWvisible
21 Oct 4.6 22:36:40 17° NE 22:36:40 17° NE 22:38:40 10° ENE visible
22 Oct 3.1 00:18:36 39° N 00:19:59 47° NE 00:25:26 10° ESE visible
22 Oct 2.4 02:00:32 20° NW 02:04:06 47° WSW 02:09:30 10° S visible
22 Oct 3.4 15:15:14 10° SE 15:19:10 20° E 15:23:09 10° NE visible
22 Oct 2.0 16:56:51 10° SSW 17:02:29 87° ESE 17:05:14 32° NE visible
22 Oct 3.8 18:42:17 10° W 18:47:06 30° NW 18:47:06 30° NW visible
23 Oct 3.2 00:05:43 43° ENE 00:05:43 43° ENE 00:10:20 10° ESE visible
23 Oct 2.3 01:47:41 40° WNW 01:49:04 49° WSW 01:54:30 10° S visible
23 Oct 3.5 15:00:20 10° SE 15:04:10 19° E 15:08:02 10° ENE visible
23 Oct 2.0 16:41:49 10° SSW 16:47:26 84° ESE 16:51:12 22° NE visible
23 Oct 3.8 18:27:10 10° W 18:32:08 31° NW 18:33:02 29° NNW visible
23 Oct 5.0 20:14:22 10° NW 20:14:53 12° NW 20:14:53 12° NW visible
23 Oct 4.1 23:53:02 23° ESE 23:53:02 23° ESE 23:55:14 10° ESE visible
24 Oct 2.5 01:34:59 46° SW 01:34:59 46° SW 01:39:30 10° S visible
24 Oct 4.0 03:16:56 10° W 03:16:56 10° W 03:17:45 10° WSW visible
24 Oct 3.5 14:45:26 10° SE 14:49:09 18° E 14:52:54 10° ENE visible
24 Oct 2.0 16:26:46 10° SSW 16:32:23 81° ESE 16:36:56 16° NE visible
24 Oct 3.7 18:12:03 10° W 18:17:03 32° NW 18:18:46 27° N visible
24 Oct 4.9 19:59:14 10° NW 20:00:35 14° NW 20:00:35 14° NW visible
25 Oct 3.6 01:22:21 23° S 01:22:21 23° S 01:24:29 10° S visible
25 Oct 2.1 16:11:44 10° SSW 16:17:20 78° ESE 16:22:30 13° NE visible
25 Oct 3.7 17:56:55 10° W 18:01:57 32° NW 18:04:19 24° N visible
25 Oct 4.8 19:44:06 10° NW 19:46:09 16° NNW 19:46:09 16° NNW visible
26 Oct 2.1 15:56:41 10° SSW 16:02:17 75° ESE 16:07:56 10° NE visible
26 Oct 3.7 17:41:48 10° W 17:46:52 33° NW 17:49:47 21° NNE visible
26 Oct 4.7 19:28:57 10° NW 19:31:36 17° NNW 19:31:36 17° NNW visible
27 Oct 2.1 15:41:39 10° SSW 15:47:14 73° ESE 15:52:53 10° NE visible
27 Oct 3.6 17:26:41 10° WSW 17:31:47 34° NW 17:35:10 19° NNE visible
27 Oct 4.6 19:13:49 10° NW 19:16:59 18° NNW 19:16:59 18° NNW visible
